Regional Weather Roundup
Issued by NWS Northern Indiana

Home | Current Version | Previous Version | Graphics & Text | Print | Product List | Glossary On
Versions: 1 2 3 4 5 6 7 8 9 10 11 12 13 14 15 16 17 18 19 20 21 22 23 24 25 26 27 28 29 30 31 32 33 34 35 36 37 38 39 40 41 42 43 44 45 46 47 48 49 50
000
ASUS43 KIWX 051900
RWRIWX

KIWX WEATHER ROUNDUP
NATIONAL WEATHER SERVICE NORTHERN INDIANA
300 PM EDT TUE MAY 05 2015

NOTE: "FAIR" INDICATES FEW OR NO CLOUDS BELOW 12,000 FEET WITH NO
SIGNIFICANT WEATHER AND/OR OBSTRUCTIONS TO VISIBILITY.

* THESE STATIONS ARE NOT UNDER NWS QUALITY CONTROL. THEY ALSO MAY NOT
  REPORT WEATHER SUCH AS PRECIPITATION OR FOG.

INZ001>027-052000-
NORTHERN INDIANA

CITY           SKY/WX    TMP DP  RH WIND       PRES   REMARKS
GARY*          FOG       52 N/A N/A N9        30.23  VSB 1/2
SOUTH BEND     CLOUDY    66  60  81 VRB5      30.22F
ELKHART*       LGT RAIN  59  59 100 NE9       30.24S
GOSHEN         LGT RAIN  70  62  76 E6        30.22R
ANGOLA*        CLOUDY    57  46  67 E8        30.24F
FORT WAYNE     PTSUNNY   77  61  57 SW7       30.21F

$$
INZ028>050-052000-
CENTRAL INDIANA

CITY           SKY/WX    TMP DP  RH WIND       PRES   REMARKS
LAFAYETTE      MOSUNNY   81  54  39 SW12G21   30.16F
KOKOMO*        MOSUNNY   81  61  50 SW15      30.19F
MUNCIE*        MOSUNNY   79  57  46 W7        30.21F
INDIANAPOLIS   MOSUNNY   82  53  36 SW17      30.19F

$$
MIZ043>046-050>051-056>058-064>065-071>073-077>080-052000-
SOUTHWEST LOWER MICHIGAN

CITY           SKY/WX    TMP DP  RH WIND       PRES   REMARKS
BATTLE CREEK   LGT RAIN  50  47  89 NE10      30.29S
BENTON HARBOR  CLOUDY    53  51  93 E8G17     30.24S
COLDWATER*     LGT RAIN  54  51  90 E9        30.26F
HILLSDALE*     LGT RAIN  53  53  97 NE6       30.27S
HOLLAND        LGT RAIN  51  47  86 E10       30.29F
GRAND RAPIDS   RAIN      49  45  86 E14       30.30F FOG
KALAMAZOO      LGT RAIN  51  48  89 NE7       30.29R
STURGIS*       RAIN      55  55 100 E8        30.25R
THREE RIVERS*  LGT RAIN  53  51  92 NE6       30.26

$$
OHZ001>008-015>018-024>025-052000-
NORTHWEST OHIO

CITY           SKY/WX    TMP DP  RH WIND       PRES   REMARKS
DEFIANCE       CLOUDY    61  57  87 NE9       30.25F FOG
FINDLAY        CLOUDY    75  61  61 NE5       30.22F
TOLEDO EXPRESS LGT RAIN  55  51  86 E9        30.26F
TOLEDO METCALF CLOUDY    53  47  79 NE10      30.29R
LIMA           MOSUNNY   77  60  55 SW10      30.21F

$$
AND FOR LAKE MICHIGAN COASTAL AND OPEN LAKE BUOY OBSERVATIONS

STATION/POSITION TEMP    WIND        PRES    VSBY  WAVE
                 AIR SEA DIR/SP/G                  HT/PER
                 (F)     (DEG/KT/KT) (MB)    (MI)  (FT/S)
CALUMET HARBOR    47     330/ 11/ 14   N/A
MICHIGAN CITY     51      20/  9/ 10   N/A
BURNS HARBOR      49     350/  2/  3 1023.7S
SAINT JOSEPH      57      40/  2/  8 1024.4S
4 MI NW BRIDGMAN  54 49   90/ 10/ 10   N/A           1/ 4
MICHIGAN CITY     50 49   40/  6/  8   N/A           1/ 4

$$
&&



USA.gov is the U.S. government's official web portal to all federal, state and local government web resources and services.